Terminal Aerodrome Forecast
Issued by NWS Greer, SC

Home | Current Version | Previous Version | Text Only | Print | Product List | Glossary On
Versions: 1 2 3 4 5 6 7 8 9 10 11 12 13 14 15 16 17 18 19 20 21 22 23 24 25 26 27 28 29 30 31 32 33 34 35 36 37 38 39 40 41 42 43 44 45 46 47 48 49 50
000
FTUS42 KGSP 181459 AAB
TAFCLT
TAF AMD
KCLT 181459Z 1815/1912 02005KT P6SM BKN090
     FM181700 07006KT P6SM BKN050
     FM190500 11005KT P6SM OVC025
     FM190700 11006KT 5SM BR OVC008
     FM191000 12010KT 5SM -SHRA BR OVC008=

USA.gov is the U.S. government's official web portal to all federal, state and local government web resources and services.